FW5830 Weather Reports


time (UTC)temp
C
wind
direction
speed
KPH
gust
KPH
rain 1hr
cm
rain 24hr
cm
rain mn
cm
humidity
%
barometer
mb
20260507033053 0 0 0.0 3.2 0.00 0.28 0.28 87 1017.4
20260507031604 0 0 0.0 1.6 0.00 0.28 0.28 87 1017.2
20260507030053 0 0 0.0 4.8 0.00 0.28 0.28 86 1017.2
20260507024552 0 325 0.0 4.8 0.00 0.28 0.28 86 1017.1
20260507023102 0 0 0.0 1.6 0.00 0.28 0.28 86 1017.0
20260507021550 0 326 0.0 4.8 0.00 0.28 0.28 85 1017.0
20260507020055 0 326 0.0 4.8 0.00 0.28 0.28 84 1016.8
20260507014601 0 0 0.0 1.6 0.00 0.28 0.28 84 1016.9
20260507013050 1 326 0.0 1.6 0.00 0.28 0.28 84 1017.1
20260507011552 1 0 0.0 1.6 0.03 0.28 0.28 82 1017.2
20260507010052 1 326 0.0 4.8 0.03 0.28 0.28 81 1017.3
20260507004554 1 0 0.0 3.2 0.03 0.28 0.28 81 1017.4
20260507003052 1 326 0.0 1.6 0.05 0.28 0.28 81 1017.5
20260507001547 1 0 0.0 3.2 0.03 0.25 0.25 80 1017.6
20260507000048 1 0 0.0 3.2 0.03 0.25 0.25 80 1017.6
20260506234548 1 326 0.0 4.8 0.05 0.25 0.25 80 1017.6
20260506233107 1 326 1.6 4.8 0.08 0.23 0.23 79 1017.5
20260506231550 1 326 1.6 4.8 0.10 0.23 0.23 78 1017.6
20260506230056 2 326 0.0 3.2 0.15 0.23 0.23 79 1017.6
20260506224550 2 326 0.0 4.8 0.20 0.20 0.20 80 1017.6
20260506223049 2 0 1.6 4.8 0.15 0.15 0.15 78 1018.0
20260506221550 2 0 0.0 6.4 0.13 0.13 0.13 77 1018.2
20260506220049 2 315 0.0 3.2 0.08 0.08 0.08 74 1018.4
20260506214552 2 0 1.6 4.8 0.00 0.03 0.00 76 1018.4
20260506213105 3 315 0.0 3.2 0.00 0.03 0.00 78 1018.4
20260506211556 2 0 0.0 1.6 0.00 0.03 0.00 82 1018.7
20260506210056 1 250 0.0 3.2 0.00 0.03 0.00 83 1018.8
20260506204556 1 0 0.0 3.2 0.00 0.05 0.00 84 1018.9
20260506203056 1 0 0.0 0.0 0.00 0.05 0.00 87 1019.2
20260506201555 0 0 0.0 0.0 0.00 0.05 0.00 89 1019.4
20260506200051 0 0 0.0 1.6 0.00 0.05 0.00 90 1019.4
20260506194556 0 0 0.0 1.6 0.00 0.10 0.00 91 1019.5
20260506193100 0 0 0.0 0.0 0.00 0.10 0.00 92 1019.6
20260506191548 0 0 0.0 0.0 0.00 0.10 0.00 92 1019.7
20260506190055 0 0 0.0 0.0 0.00 0.10 0.00 92 1019.8
20260506184550 0 0 0.0 0.0 0.00 0.13 0.00 92 1020.0
20260506183049 0 0 0.0 0.0 0.00 0.13 0.00 92 1020.1
20260506181549 -1 0 0.0 0.0 0.00 0.13 0.00 92 1020.0
20260506174547 -1 137 1.6 8.0 0.00 0.13 0.00 92 1019.9
20260506173043 -1 151 6.4 16.1 0.00 0.13 0.00 92 1019.9
20260506171558 -1 134 4.8 14.5 0.00 0.13 0.00 92 1019.8
20260506164547 -1 110 8.0 12.9 0.00 0.13 0.00 92 1019.3
20260506163111 -1 129 3.2 14.5 0.00 0.13 0.00 92 1019.0
20260506161550 -1 131 6.4 11.3 0.00 0.13 0.00 93 1018.6
20260506160050 -1 117 4.8 12.9 0.00 0.13 0.00 93 1018.7
20260506154609 -1 122 1.6 8.0 0.00 0.18 0.00 93 1018.5
20260506153059 -1 116 3.2 8.0 0.00 0.18 0.00 93 1018.6
20260506151554 -1 138 4.8 11.3 0.00 0.18 0.00 93 1018.4
20260506150047 -1 113 4.8 9.7 0.00 0.18 0.00 93 1018.3
20260506144541 -1 127 3.2 9.7 0.00 0.20 0.00 93 1018.1
20260506143101 -1 131 1.6 6.4 0.00 0.20 0.00 93 1018.0
20260506141543 -1 120 0.0 3.2 0.00 0.20 0.00 93 1017.8
20260506140049 -1 0 0.0 3.2 0.00 0.20 0.00 93 1017.8
20260506134549 -1 0 0.0 1.6 0.00 0.20 0.00 93 1017.8
20260506133048 -1 130 0.0 3.2 0.00 0.20 0.00 93 1017.5
20260506131548 -1 135 0.0 3.2 0.00 0.20 0.00 93 1017.4
20260506130052 -1 141 1.6 3.2 0.00 0.20 0.00 93 1017.2
20260506124554 -1 0 0.0 1.6 0.00 0.25 0.00 93 1016.6
20260506123049 -1 0 0.0 1.6 0.00 0.25 0.00 93 1016.5
20260506121552 -2 0 0.0 3.2 0.00 0.25 0.00 93 1016.6
20260506120056 -2 0 0.0 3.2 0.00 0.25 0.00 93 1016.6
20260506114556 -2 0 0.0 3.2 0.00 0.28 0.00 93 1016.3
20260506113043 -2 0 0.0 3.2 0.00 0.28 0.00 93 1016.3
20260506111548 -2 0 1.6 3.2 0.00 0.28 0.00 93 1016.1
20260506110058 -2 129 0.0 3.2 0.00 0.28 0.00 93 1015.9
20260506104545 -1 0 0.0 1.6 0.00 0.30 0.00 93 1015.9
20260506103048 -1 0 0.0 1.6 0.00 0.30 0.00 93 1015.9
20260506101601 -1 129 0.0 4.8 0.00 0.30 0.00 93 1016.1
20260506100052 -1 134 1.6 6.4 0.00 0.30 0.00 93 1016.3
20260506094615 -1 101 1.6 6.4 0.00 0.30 0.00 93 1016.1
20260506093053 -1 120 1.6 6.4 0.00 0.30 0.00 93 1015.8
20260506091556 -1 127 3.2 8.0 0.00 0.30 0.00 93 1015.7
20260506090053 -1 119 1.6 4.8 0.00 0.30 0.00 93 1015.7
20260506084549 -1 113 1.6 8.0 0.00 0.30 0.00 93 1015.8
20260506083102 -1 0 3.2 8.0 0.00 0.30 0.00 93 1015.7
20260506081550 -1 131 1.6 8.0 0.00 0.30 0.00 93 1015.9
20260506073053 -1 0 3.2 6.4 0.00 0.30 0.00 93 1016.0
20260506071551 -1 0 0.0 3.2 0.00 0.30 0.00 93 1015.9
20260506061550 -1 134 1.6 6.4 0.00 0.30 0.00 93 1015.6
20260506044554 -1 133 3.2 8.0 0.00 0.30 0.30 93 1015.1
20260506043049 -1 130 1.6 8.0 0.00 0.30 0.30 93 1015.3
20260506041554 -1 121 0.0 8.0 0.00 0.30 0.30 93 1015.2
20260506040101 -1 132 3.2 8.0 0.00 0.30 0.30 93 1015.1
20260506034558 -1 110 1.6 8.0 0.00 0.46 0.30 93 1015.1